Miscellaneous Local Product
Issued by NWS Hastings, NE

Home | Current Version | Previous Version | Text Only | Print | Product List | Glossary Off
Versions: 1 2 3 4 5 6 7 8 9 10 11 12 13 14 15 16 17 18 19 20 21 22 23 24 25 26 27 28 29 30 31 32 33 34 35 36 37 38 39 40 41 42 43 44 45 46 47 48 49 50

000
AXUS43 KGID 270202
MISGRI

GID CWA HOURLY WEATHER ROUNDUP
NATIONAL WEATHER SERVICE HASTINGS NE
900 PM CDT TUE MAY 26 2015

NOTE: "FAIR" INDICATES FEW OR NO CLOUDS BELOW 12,000 FEET WITH NO
SIGNIFICANT WEATHER AND/OR OBSTRUCTIONS TO VISIBILITY.

...SOUTH CENTRAL NEBRASKA...

CITY           SKY/WX    TMP DP  RH WIND       PRES   REMARKS
GRAND ISLAND   PTCLDY    62  50  64 W6        29.95R
HASTINGS       MOCLDY    64  51  62 NW5       29.95S
KEARNEY        CLEAR     66  46  48 NW5       29.97S
ORD            MOCLDY    60  49  66 W6        29.93S
YORK           PTCLDY    64  54  68 NW7       29.92S
AURORA         PTCLDY    65  49  56 NW8       29.93R
LEXINGTON      CLEAR     63  53  69 E5        29.98S
HOLDREGE       PTCLDY    65  47  52 N5        29.98R
HEBRON         MOCLDY    66  51  58 NW3       29.93S

...NEBRASKA PANHANDLE...

CITY           SKY/WX    TMP DP  RH WIND       PRES   REMARKS
CHADRON        PTCLDY    61  52  72 S7        29.96R
ALLIANCE       MOCLDY    60  51  72 SE7       29.98S
SCOTTSBLUFF    PTCLDY    64  52  64 SE8       29.99R
SIDNEY         PTCLDY    59  52  77 SE8       30.02F

...WESTERN AND NORTH CENTRAL NEBRASKA...

CITY           SKY/WX    TMP DP  RH WIND       PRES   REMARKS
VALENTINE      CLEAR     67  48  50 W3        29.95R
AINSWORTH      PTCLDY    68  49  51 CALM      29.96R
ONEILL         PTCLDY    63  52  68 W7        29.92S
BROKEN BOW     CLEAR     64  56  75 S3        29.97R
IMPERIAL       CLEAR     62  51  67 E7        30.01R
NORTH PLATTE   CLEAR     63  51  65 S3        30.00R
MCCOOK         CLEAR     64  49  57 E6        29.99R

...EASTERN NEBRASKA...

CITY           SKY/WX    TMP DP  RH WIND       PRES   REMARKS
NORFOLK        PTCLDY    62  52  69 W3        29.88S
SO SIOUX CITY  PTCLDY    63  55  75 CALM      29.86R
TEKAMAH        CLEAR     63  56  78 NE6       29.86R
COLUMBUS         N/A    N/A N/A N/A MISG        N/A
ALBION         CLEAR     64  53  67 NW5       29.91S
OMAHA EPPLEY   MOCLDY    66  56  70 W5        29.86R
OFFUTT AFB     CLEAR     65  56  71 SW6       29.86R
MILLARD        CLEAR     67  56  68 CALM      29.86S
LINCOLN        PTCLDY    67  54  63 W3        29.90R
NEBRASKA CITY  CLEAR     63  55  77 W6        29.89R
BEATRICE       PTCLDY    65  55  68 W5        29.90S
FALLS CITY     CLEAR     66  59  78 NW5       29.89R

...NORTHERN KANSAS...

CITY           SKY/WX    TMP DP  RH WIND       PRES   REMARKS
GOODLAND       PTCLDY    61  54  77 S6        30.01S
HILL CITY      CLEAR     61  54  77 NE6       29.99R
NORTON         CLEAR     63  46  55 N3        29.98S
PHILLIPSBURG   CLEAR     68  52  56 N3        29.98R
SMITH CENTER   CLEAR     63  52  67 N5        29.97S
HAYS           CLEAR     66  52  59 NE8       29.97R
RUSSELL        CLEAR     64  55  72 N8        29.95R
CONCORDIA      MOCLDY    64  53  67 W7        29.94R
SALINA         PTCLDY    69  57  65 N8        29.95R
TOPEKA         PTCLDY    72  58  61 SW3       29.91R



USA.gov is the U.S. government's official web portal to all federal, state and local government web resources and services.